Location: Newark
(48.1500°N, 2.9667°W)
Time: 23:43:35
(UTC+00:00)

A-11 Canister half - Pass Details

Date: 28 January 2020
Orbit: 1517 x 1683 km, 47.2° (Epoch: 26 February)

Event Time Altitude Azimuth Distance (km) Brightness Sun altitude
Exits shadow 01:59:52 14° 91° (E) 3,350 10.9 -54.5°
Drops below altitude 10° 02:00:55 10° 91° (E) 3,683 11.2 -54.4°
Sets 02:03:57 0° 91° (E) 4,671 11.9 -54.0°
